• Join FlightAware (Why Join?)
  • Login
  • US Flag 
02:56PM EDT


 

Airport Tracker/Info


-or-


 

Live Flight TrackerFlight Track Log ✈ SWA378 ✈ 02-May-2013 ✈ KSJC - KLAX

Flight Track Log - Related Links

Times and Time Zones

All times are in EDT time to prevent confusion due to time zone crossing. See the SWA378 flight status page for this flight to view local times or setup timezone preferences in your user account.

Time Position Orientation Groundspeed Altitude Reporting Facility
EDT Latitude Longitude Course Direction KTS MPH feet Rate Location/Type
11:43AM 37.3833 -121.9500 345° North 164 189 1,500  Level Northern Cal TRACON
11:44AM 37.4333 -121.9667 345° North 217 250 3,800 1,740 Climbing Northern Cal TRACON
11:45AM 37.4167 -121.9000 107° East 233 268 5,000 1,320 Climbing Northern Cal TRACON
11:46AM 37.3667 -121.8333 133° Southeast 236 272 6,500 1,980 Climbing Northern Cal TRACON
11:46AM 37.3486 -121.8075 131° Southeast 233 268 8,100 2,700 Climbing Oakland Center
11:47AM 37.2903 -121.7414 138° Southeast 283 326 10,800 2,760 Climbing Oakland Center
11:48AM 37.2206 -121.6647 139° Southeast 330 380 13,800 2,700 Climbing Oakland Center
11:49AM 37.1478 -121.5800 137° Southeast 356 410 16,400 2,580 Climbing Oakland Center
11:50AM 37.0686 -121.4956 140° Southeast 387 445 19,100 2,760 Climbing Oakland Center
11:51AM 36.9683 -121.3822 138° Southeast 406 467 22,100 2,580 Climbing Oakland Center
11:52AM 36.8778 -121.2889 140° Southeast 420 483 24,500 2,220 Climbing Oakland Center
11:53AM 36.7864 -121.1928 140° Southeast 438 504 26,700 1,860 Climbing Oakland Center
11:54AM 36.6903 -121.0903 139° Southeast 451 519 28,400 1,680 Climbing Oakland Center
11:55AM 36.5906 -120.9836 139° Southeast 469 540 30,200 1,920 Climbing Oakland Center
11:56AM 36.4889 -120.8814 141° Southeast 469 540 32,400 1,860 Climbing Oakland Center
11:57AM 36.3908 -120.7769 139° Southeast 463 533 34,100 1,800 Climbing Oakland Center
11:58AM 36.2703 -120.6547 141° Southeast 464 534 36,100 1,680 Climbing Oakland Center
12:00PM 36.1697 -120.5544 141° Southeast 462 532 37,600 1,320 Climbing Oakland Center
12:01PM 36.0714 -120.4517 140° Southeast 472 543 38,900 660 Climbing Oakland Center
12:02PM 35.9736 -120.3572 142° Southeast 437 503 39,000  Climbing Oakland Center
12:03PM 35.8756 -120.2567 140° Southeast 451 519 39,000  Level Oakland Center
12:04PM 35.7781 -120.1603 141° Southeast 448 516 39,000  Level Oakland Center
12:05PM 35.6808 -120.0625 141° Southeast 447 514 39,000  Level Oakland Center
12:06PM 35.5814 -119.9628 141° Southeast 456 525 39,000 -420 Level Oakland Center
12:07PM 35.4833 -119.8656 141° Southeast 451 519 38,200 -840 Descending Oakland Center
12:08PM 35.3839 -119.7681 141° Southeast 454 522 37,300 -1,020 Descending Oakland Center
12:08PM 35.3433 -119.7281 141° Southeast 461 531 36,900 -1,020 Descending Los Angeles Center
12:09PM 35.2436 -119.6300 141° Southeast 459 528 36,000 -840 Descending Los Angeles Center
12:10PM 35.1594 -119.5572 145° Southeast 461 531 35,200 -2,040 Descending Los Angeles Center
12:11PM 35.0333 -119.4497 145° Southeast 460 529 31,900 -2,820 Descending Los Angeles Center
12:12PM 34.9256 -119.3603 146° Southeast 466 536 29,400 -2,580 Descending Los Angeles Center
12:13PM 34.8036 -119.2564 145° Southeast 448 516 26,600 -2,520 Descending Los Angeles Center
12:14PM 34.7067 -119.1725 145° Southeast 431 496 24,300 -2,280 Descending Los Angeles Center
12:15PM 34.6031 -119.0875 146° Southeast 420 483 22,000 -2,160 Descending Los Angeles Center
12:16PM 34.5122 -119.0111 145° Southeast 394 453 19,800 -2,100 Descending Los Angeles Center
12:17PM 34.4247 -118.9383 146° Southeast 382 440 17,700 -2,040 Descending Los Angeles Center
12:18PM 34.3381 -118.8725 148° Southeast 370 426 15,700 -2,040 Descending Los Angeles Center
12:19PM 34.2411 -118.8389 164° South 365 420 13,600 -2,040 Descending Los Angeles Center
12:20PM 34.1658 -118.8106 163° South 357 411 11,600 -1,800 Descending Los Angeles Center
12:21PM 34.0467 -118.7564 159° South 310 357 10,000 -780 Descending Los Angeles Center
12:22PM 34.0297 -118.6678 103° East 263 303 10,000 -180 Level Los Angeles Center
12:24PM 34.0219 -118.5814 96° East 231 266 9,700 -660 Descending Los Angeles Center
12:25PM 34.0150 -118.5106 97° East 214 246 8,700 -1,080 Descending Los Angeles Center
12:26PM 34.0103 -118.4469 95° East 211 243 7,500 -1,020 Descending Los Angeles Center
12:27PM 34.0186 -118.3772 82° East 210 242 6,400 -1,140 Descending Los Angeles Center
12:28PM 34.0289 -118.2861 82° East 198 228 4,900 -1,260 Descending Los Angeles Center
12:29PM 34.0339 -118.2236 84° East 191 220 3,800 -960 Descending Los Angeles Center
12:30PM 34.0114 -118.1789 121° Southeast 193 222 3,000 -420 Descending Los Angeles Center
12:31PM 33.9703 -118.2097 212° Southwest 195 224 3,000 -420 Level Los Angeles Center
12:32PM 33.9628 -118.2739 262° West 195 224 2,200 -960 Descending Los Angeles Center
12:33PM 33.9567 -118.3422 264° West 183 211 1,100 -900 Descending Los Angeles Center
12:34PM 33.9525 -118.3889 264° West 159 183 400 -540 Descending Los Angeles Center
12:35PM 33.9475 -118.4303 262° West 152 175 100 -300 Descending Los Angeles Center
12:37PM 33.9425 -118.4081 90° East  Level Estimated